Location: Slidell
(30.2789°N, 89.7378°W)
Time: 11:58:13
(UTC-05:00)

Daily predictions for brighter satellites

Satellite Brightness Start Highest point End
(mag) Time Altitude Azimuth Time Altitude Azimuth Time Altitude Azimuth
Atlas Centaur 2 3.5 19:00:08 10° W 19:08:32 65° SSW 19:16:45 10° ESE
Cosmos 1378 3.4 19:06:58 10° N 19:10:33 45° E 19:14:07 10° SSE
Cosmos 1371 Rocket 4.3 19:07:23 10° NNW 19:12:42 75° WSW 19:18:01 10° S
CZ-2C R/B 3.6 19:08:44 10° S 19:13:32 47° W 19:18:13 10° NNW
USA 215 3.3 19:11:39 10° NE 19:18:07 63° SE 19:24:33 10° SSW
FREGAT/IRIS 3.8 19:18:13 10° SE 19:20:48 25° ENE 19:23:23 10° NNE
Abrixas 4.4 19:20:05 10° W 19:22:42 27° NW 19:25:21 10° NNE
COSMO-SKYMED 1 3.7 19:19:33 10° N 19:23:45 49° WNW 19:27:55 10° SSW
BREEZE-M DEB (TANK) 4.2 19:20:57 10° NW 19:24:54 79° NE 19:39:32 10° SE
Cosmos 1072 Rocket 4.5 19:19:18 10° S 19:25:25 90° WNW 19:31:33 10° N
Meteor 1-28 Rocket 3.1 19:21:57 10° NNE 19:25:39 70° E 19:29:20 10° S
Helios 1B rocket 3.0 19:23:19 10° NNE 19:27:07 35° E 19:30:54 10° SSE
IDEFIX/ARIANE 42P 4.2 19:22:46 10° SSW 19:27:36 39° W 19:32:31 10° NNW
Cosmos 2278 Rocket 3.9 19:23:04 10° NW 19:28:13 37° WSW 19:33:21 10° S
Cosmos 1805 3.3 19:25:04 10° S 19:28:54 57° E 19:32:47 10° NNE
GPS 2-04 Rocket1 2.9 19:30:29 10° W 19:33:50 52° NNW 19:36:40 14° ENE
Gbstr 26 Del rocket 3.0 19:29:51 10° SW 19:33:55 73° SE 19:38:49 10° NE
SeaSat 1 4.0 19:34:29 15° ESE 19:34:35 15° ESE 19:37:15 10° SE
Cosmos 1346 4.5 19:34:03 10° NNE 19:36:08 19° ENE 19:36:08 19° ENE
Cosmos 1953 2.2 19:32:26 10° S 19:36:24 75° E 19:40:22 10° N
Cosmos 2297 4.0 19:31:18 10° NNW 19:36:56 72° WSW 19:42:31 10° S
NOAA 12 4.1 19:33:50 10° SSE 19:39:00 66° ENE 19:44:14 10° N
Cosmos 1943 3.7 19:35:12 10° S 19:40:18 37° ESE 19:45:25 10° NE
SAR-Lupe-1 3.9 19:37:44 10° SSE 19:41:17 83° ENE 19:44:51 10° N
Cosmos 1766 Rocket 3.5 19:37:38 10° N 19:41:57 65° E 19:46:14 10° SSE
Cosmos 1076 Rocket 3.4 19:37:39 10° N 19:42:00 83° E 19:46:21 10° S
Cosmos-2242 2.9 19:40:17 10° S 19:44:36 82° E 19:49:00 10° N
Cosmos 2369 Rocket 3.8 19:41:26 10° NNE 19:44:43 15° ENE 19:45:20 15° ENE
Meteor 1-29 3.2 19:41:24 10° NNE 19:44:46 46° E 19:48:07 10° S
ATLAS CENTAUR R/B 3.7 19:41:49 10° WNW 19:45:00 23° WSW 19:47:59 10° SSW
Delta 168 3.8 19:41:16 10° WSW 19:45:20 49° S 19:49:08 20° ESE
Cosmos 1603 4.0 19:40:44 10° SSW 19:46:25 74° WNW 19:52:11 10° NNE
Cosmos 1733 4.0 19:48:08 10° SSE 19:51:31 29° E 19:54:54 10° NNE
Cosmos 1470 3.1 19:49:48 10° SSE 19:53:26 39° E 19:57:04 10° NNE
SEDSat Delta rocket 4.0 19:46:51 10° W 19:53:28 84° N 19:57:50 24° E
OAO 3 Rocket 3.6 19:50:15 10° WNW 19:54:52 50° N 19:57:20 25° ENE
Cosmos 1452 Rocket 3.4 19:53:48 10° NNW 19:59:05 86° ENE 20:04:19 10° SSE
Spot 1 4.1 19:55:07 10° SSE 19:59:55 79° ENE 20:04:27 10° N
Cosmos 2034 Rocket 4.3 19:54:15 10° SSW 20:00:28 69° W 20:06:46 10° N
SJ-6B 3.9 20:01:27 10° S 20:05:15 47° W 20:09:10 10° NNW
In-Cosmos 22 4.4 20:00:18 10° NNW 20:06:03 75° W 20:11:44 10° S
Cosmos 1674 3.4 20:03:23 10° NNE 20:06:20 35° NE 20:06:20 35° NE
ASTEX 1 3.4 20:02:43 10° NNE 20:07:30 52° E 20:12:14 10° S
Cosmos 1842 Rocket 3.4 20:04:38 10° S 20:08:55 70° E 20:13:15 10° N
ASTRO E2 2.7 20:07:30 10° W 20:11:33 75° SSW 20:12:23 53° SE
Cosmos 1500 Rocket 3.7 20:10:16 10° N 20:14:35 49° E 20:14:49 48° E
CENTAUR R/B 2.4 20:09:39 10° SSW 20:15:30 82° WNW 20:22:03 10° NNE
FengYun 1-2 T 4.1 20:13:30 10° SSE 20:19:00 79° ENE 20:24:30 10° N
Cosmos 1420 Rocket 3.9 20:13:55 10° N 20:19:13 71° ENE 20:21:43 32° SSE
ALOS 2.2 20:20:32 49° SE 20:21:31 61° ENE 20:26:07 10° N
Helios 1A 3.2 20:20:17 14° S 20:23:54 71° W 20:28:05 10° NNW
ISS -0.4 20:23:47 10° WNW 20:25:36 14° NW 20:27:23 10° N
Spot 2 Rocket 3.9 20:22:36 10° S 20:27:34 61° WSW 20:32:33 10° NNW
Meteosat 1 Rocket2 3.5 20:23:42 10° WSW 20:30:44 66° S 20:31:33 57° SE
Resurs 1-3 4.0 20:31:24 21° S 20:34:13 62° WSW 20:38:35 10° NNW
Resurs 01 Rocket 3.0 20:35:56 10° SSW 20:40:04 39° W 20:44:14 10° NNW
FENGYUN 3A 3.9 20:51:25 41° SSW 20:53:13 66° WSW 20:58:35 10° NNW
Atlas Centaur 2 4.2 20:50:50 10° W 20:57:57 30° SSW 21:00:49 24° S
SeaSat 1 3.9 21:14:24 30° WSW 21:14:24 30° WSW 21:17:02 10° SW
Cosmos 1943 Rocket 4.2 21:19:46 10° N 21:21:09 18° N 21:21:09 18° N
Cosmos 2369 Rocket 3.4 21:23:31 10° NNW 21:27:10 39° NW 21:27:10 39° NW
